Dewpoint
63 63 63 63 64 64 64 63 63 64 63 63 62 62 62 62 61 61 61 60 60 60 60 59 59 58 57 57 57 57 56 55 54 53 51 50 49 49 48 48 47 47 48 46 46 46 46 45 45 45 45 45 45 45 45 45 45 45 44 42 40 39 38 36 35 36 37 39 38 38 38 37 35 36 39 40 41 42 43 42 42 41 40 41 42
64 63 63 64 64 64 64 63 63 63 63 63 62 62 61 61 61 61 60 59 59 59 59 59 59 58 57 56 56 56 55 54 54 51 50 49 49 49 48 47 46 46 45 44 44 45 45 44 45 46 45 45 44 44 44 44 44 43 43 43 42 42 41 37 36 35 33 35 34 35 35 37 34 36 39 40 40 42 40 41 41 41 40 40 41
64 64 64 64 64 64 64 63 63 63 63 63 62 62 61 61 61 60 59 59 59 59 59 59 58 57 56 56 56 55 56 54 52 50 49 48 47 47 47 46 46 45 44 44 44 45 45 45 45 45 46 45 45 45 44 44 44 43 43 43 43 42 41 39 36 35 34 35 36 34 35 35 35 35 38 40 41 41 40 41 41 41 42 41 41
64 64 64 64 64 64 64 64 63 63 63 63 62 61 61 60 60 59 59 59 59 59 58 58 57 55 55 55 55 54 53 54 53 51 48 47 46 46 46 46 46 45 45 44 44 44 44 44 45 45 45 44 44 44 45 44 44 44 43 43 42 42 42 40 38 37 35 32 33 34 36 34 34 35 40 39 40 40 41 41 41 41 40 40 40
64 64 64 64 64 64 64 64 63 63 63 62 62 61 60 60 60 59 59 59 58 58 58 57 55 54 54 53 53 53 53 52 51 49 47 47 46 46 46 46 45 45 46 46 49 45 46 45 44 44 44 44 44 45 45 45 45 45 44 42 41 41 41 39 37 35 33 31 32 34 35 34 36 36 38 38 39 39 40 40 41 40 39 39 41
65 64 64 64 64 64 64 64 63 63 62 62 61 60 60 60 60 60 59 58 58 57 57 56 55 53 53 52 52 53 52 49 48 47 46 46 46 46 46 46 45 43 43 43 43 44 44 44 44 44 44 44 44 44 45 44 45 45 45 44 39 38 38 38 37 36 34 33 31 31 34 34 33 34 36 38 38 38 38 39 38 40 39 38 39
65 65 64 64 64 64 64 64 63 62 62 61 61 60 60 60 60 59 59 58 57 56 56 55 54 53 52 51 51 51 50 48 47 46 46 46 46 46 44 42 41 41 41 42 42 42 43 43 43 43 44 44 44 44 44 44 44 44 45 41 38 37 37 37 36 35 33 33 33 33 32 35 34 33 35 37 38 39 38 38 37 38 39 39 38
65 65 64 64 63 63 64 63 63 62 62 61 60 60 60 60 60 59 58 57 56 56 55 54 53 51 50 49 49 49 48 46 47 46 46 46 45 42 41 40 40 40 40 40 41 40 40 41 41 42 43 43 43 43 43 43 43 43 42 39 37 35 35 36 35 34 34 34 33 31 33 32 34 34 37 34 34 34 38 38 36 37 38 38 37
65 64 64 64 63 63 63 63 62 61 61 61 60 59 59 59 59 59 58 57 56 55 55 53 51 50 49 49 48 48 47 47 48 46 46 45 42 40 39 39 39 39 39 39 39 39 40 41 42 43 47 48 47 47 46 45 42 41 41 38 37 35 35 35 35 33 33 33 32 33 31 32 33 34 33 33 33 32 36 37 35 37 38 36 36
64 64 64 63 63 63 63 62 61 61 61 60 60 59 59 59 59 58 57 56 56 55 54 51 50 49 48 47 47 47 47 48 49 47 47 44 41 40 39 38 38 38 38 38 38 39 41 44 48 50 49 48 46 44 43 44 45 43 40 38 36 34 33 33 32 32 33 32 32 31 30 30 31 33 33 33 34 35 34 35 34 36 36 35 35
64 64 63 63 63 62 62 61 61 60 60 60 59 59 59 59 58 57 56 56 55 54 52 50 49 48 47 47 46 47 48 48 44 42 42 43 41 38 38 37 38 38 38 38 39 41 41 42 44 47 46 46 44 41 41 41 42 43 44 43 40 35 33 32 32 32 34 32 33 32 31 30 31 34 33 34 35 34 34 34 34 35 34 32 31
64 63 63 63 62 61 61 60 60 60 60 59 59 59 58 58 57 57 56 55 55 52 50 49 48 47 47 46 46 47 47 47 41 41 41 40 41 39 37 37 38 37 38 38 39 38 38 39 38 39 38 39 39 39 40 40 39 39 39 40 40 39 37 34 34 31 32 32 32 32 32 30 31 33 33 34 35 34 35 33 33 33 33 32 32
63 63 62 62 61 61 60 60 59 59 59 59 59 58 58 58 57 56 55 55 52 50 49 48 47 47 46 46 46 46 46 42 41 41 40 39 38 38 36 37 37 37 37 37 37 38 38 38 39 41 43 45 45 38 39 40 41 41 40 40 40 39 37 37 37 35 33 33 33 33 33 33 32 34 38 36 36 33 35 34 34 34 33 33 32
63 62 61 61 60 60 60 59 59 59 59 59 58 58 57 57 56 56 55 52 50 49 47 47 46 45 45 45 45 45 44 43 41 41 39 37 36 37 35 36 36 36 36 37 38 39 39 40 43 44 42 42 40 40 39 38 37 37 36 36 38 40 39 38 39 39 39 36 34 33 35 37 35 36 40 38 36 35 34 34 34 34 34 34 34
62 61 60 60 60 59 59 58 58 58 58 58 58 57 57 56 56 55 52 50 49 47 46 45 45 44 44 44 43 44 44 41 40 40 38 37 36 37 36 38 36 36 37 38 40 41 42 43 43 41 40 40 41 41 39 38 36 35 34 33 33 34 35 36 37 38 40 39 37 37 37 39 38 37 37 39 37 36 37 35 35 35 36 37 34
60 60 59 59 59 59 58 58 58 58 57 57 57 56 56 56 55 53 51 49 48 47 46 45 44 43 43 43 43 43 43 39 40 39 38 36 37 38 36 37 37 37 38 41 41 42 43 42 39 36 36 38 43 41 42 41 37 33 33 34 34 34 34 42 40 39 41 38 38 38 38 38 41 39 39 38 37 36 41 38 37 35 33 31 29
60 59 58 58 58 58 58 57 57 57 57 56 56 56 55 55 53 51 49 48 47 46 45 44 43 42 42 42 42 42 41 39 39 39 38 37 37 37 38 37 35 36 38 40 42 42 42 39 35 33 33 34 37 37 40 42 40 37 34 33 35 34 35 38 40 39 37 37 37 37 37 37 37 38 37 37 37 36 34 34 33 32 32 29 31
59 58 58 58 58 57 57 57 57 56 56 56 55 55 55 54 52 50 48 47 46 45 44 43 42 42 41 41 41 40 39 39 39 39 38 38 40 37 35 35 36 39 40 41 41 41 42 43 39 32 32 34 36 37 39 42 42 40 38 34 35 35 36 39 41 40 40 40 39 38 37 37 36 36 37 37 37 39 34 33 32 32 32 30 28
58 58 58 57 57 57 57 57 57 56 56 55 55 54 54 52 50 49 48 47 46 45 44 42 41 41 42 42 44 40 38 38 38 38 39 39 39 38 38 38 41 40 39 38 39 41 43 43 41 36 34 36 34 37 39 42 42 42 40 36 36 36 37 36 35 35 35 34 33 37 37 40 41 39 41 41 39 41 37 35 34 33 31 31 31
58 58 57 57 57 57 57 56 56 56 55 55 54 54 52 50 49 48 47 47 46 44 43 42 41 43 43 41 42 39 38 38 39 38 40 39 39 39 40 41 39 37 36 37 38 37 39 37 39 35 35 34 34 36 37 39 40 41 40 38 38 38 36 31 37 35 32 34 34 36 37 37 37 40 39 37 40 44 38 37 37 36 34 31 31
57 57 57 56 56 56 56 56 56 55 55 54 54 52 51 49 48 47 46 45 45 44 44 44 44 45 42 41 39 39 41 39 38 38 39 39 39 40 42 42 37 35 35 36 35 35 34 33 33 34 33 33 34 35 36 37 38 38 38 37 37 36 35 31 36 39 33 36 37 36 36 34 34 33 34 33 35 38 39 38 38 37 34 32 30
57 56 56 56 56 56 56 56 55 55 54 53 52 51 50 49 48 47 45 44 44 43 44 44 44 43 44 40 39 39 41 41 39 37 38 39 39 40 42 39 36 34 33 32 31 31 30 29 30 33 33 33 33 34 35 36 35 33 31 34 34 33 35 35 32 33 33 35 34 34 33 31 30 32 34 34 34 37 35 34 35 35 34 33 32
56 56 55 55 55 55 55 55 54 54 53 52 51 50 50 49 48 46 44 44 43 43 43 44 43 42 40 40 39 39 39 39 37 36 36 37 38 39 39 38 36 36 33 31 30 29 28 28 31 35 32 32 32 32 33 36 36 32 32 32 32 31 35 33 33 32 33 34 34 31 30 30 29 28 32 31 33 34 34 34 34 34 34 35 36
55 55 54 54 54 54 54 54 54 53 52 51 51 50 49 48 47 46 44 43 42 42 42 41 41 41 43 42 39 39 38 37 36 36 35 35 36 38 38 37 36 35 34 32 30 29 28 27 32 33 32 32 32 32 32 33 31 33 32 32 32 34 35 32 31 33 33 31 30 29 28 28 31 30 31 33 34 32 34 33 34 34 34 34 33
54 54 54 54 53 53 53 53 53 52 51 51 50 50 49 48 47 45 44 42 41 40 39 40 40 40 40 40 39 39 38 36 34 35 34 35 34 35 37 36 36 36 35 34 32 31 30 30 32 32 31 32 32 32 31 32 32 32 32 31 36 27 30 29 30 32 28 28 29 29 29 29 29 29 31 32 35 33 34 34 34 33 33 33 33
53 53 53 53 53 53 53 53 52 52 51 51 51 50 49 48 47 45 44 42 41 40 38 40 40 40 42 42 40 40 40 38 37 37 38 38 35 34 35 36 37 37 37 35 35 33 32 32 33 32 32 31 30 27 26 28 33 34 34 35 29 27 29 29 29 30 26 29 31 29 28 29 31 32 33 33 31 30 31 32 33 32 32 33 31
52 52 52 52 52 53 52 52 52 51 51 51 51 50 49 48 47 45 44 43 41 39 40 41 42 42 42 41 39 39 38 37 34 34 36 35 34 37 36 36 38 36 37 36 36 34 32 32 30 30 30 31 31 32 34 35 32 31 32 34 32 30 30 27 27 31 31 30 31 31 31 31 33 33 32 32 31 32 31 32 31 31 32 32 31
52 52 52 52 52 52 52 46 49 51 51 51 51 51 50 50 49 46 45 44 43 43 42 43 40 39 42 39 37 37 38 38 35 33 35 37 33 33 38 40 36 35 34 33 33 35 32 32 32 31 30 28 27 25 26 29 30 30 30 30 31 33 36 39 38 31 31 31 31 31 30 31 30 31 32 31 30 32 32 32 31 31 32 31 29
52 52 52 52 52 51 52 51 51 51 51 50 50 50 50 49 49 49 48 47 47 45 42 42 42 42 41 40 36 36 36 36 37 35 35 34 32 33 35 36 35 34 35 34 35 32 29 27 27 28 24 23 22 23 25 27 28 30 31 32 31 30 31 32 31 31 32 31 30 29 27 29 29 31 30 29 31 31 32 32 32 31 32 31 29
52 52 52 52 52 51 51 51 51 50 50 49 46 43 36 37 42 48 46 42 41 40 40 42 41 40 40 40 36 36 38 37 36 35 34 33 33 33 33 33 34 34 34 33 31 26 25 24 24 24 24 23 23 24 26 27 28 26 28 30 30 29 29 30 30 30 30 31 31 30 30 30 29 30 30 29 30 31 31 32 32 33 30 29 30
51 52 51 52 50 51 51 51 50 50 49 48 47 44 42 40 37 36 41 41 39 38 38 38 38 38 39 39 39 35 35 35 36 35 34 34 33 33 33 33 33 33 32 29 26 25 24 24 23 23 24 25 24 25 26 26 27 27 26 27 28 29 29 30 30 29 30 29 30 29 29 29 29 31 30 30 30 30 31 31 31 32 30 30 29
51 51 52 51 49 50 51 50 49 48 47 47 46 45 44 43 41 38 36 39 38 38 38 37 37 37 37 38 39 36 34 35 35 35 34 34 33 33 33 33 33 32 31 29 26 25 24 22 24 23 24 26 26 26 27 27 27 27 27 26 27 27 27 28 30 30 29 29 29 28 27 29 30 30 30 29 28 29 31 30 30 30 30 31 30
51 51 51 50 49 48 49 49 48 47 46 45 45 44 43 43 43 39 38 36 38 38 37 37 37 37 37 37 36 35 34 35 35 35 34 34 33 34 34 34 33 32 31 28 25 25 25 23 23 23 24 25 25 26 27 29 29 29 28 28 28 29 28 28 29 30 29 29 30 29 30 30 30 30 29 29 28 28 29 29 29 29 30 29 30
52 51 50 49 49 49 49 49 48 47 46 45 45 44 44 44 42 40 39 39 37 35 35 35 36 36 37 37 36 35 34 34 35 35 34 33 33 33 34 34 34 33 30 27 27 26 25 24 24 24 25 25 25 27 28 30 31 31 30 30 29 30 29 31 31 31 31 31 30 30 30 30 30 30 30 29 30 29 28 28 29 29 29 29 29
52 47 43 45 50 49 49 49 48 47 46 45 44 43 43 42 41 42 43 41 39 41 38 36 35 36 37 37 36 35 34 34 34 34 34 33 33 33 34 33 32 30 30 29 28 27 26 26 25 26 27 27 28 29 30 30 31 31 31 30 29 29 28 29 29 31 31 31 30 31 31 29 30 30 30 29 29 28 28 28 29 29 29 29 29
51 49 49 48 49 49 49 49 48 47 47 46 45 42 41 40 41 42 42 42 40 36 34 35 35 36 35 36 35 35 35 34 34 34 34 33 33 34 31 31 31 30 28 29 29 29 28 27 26 27 29 30 31 31 31 31 31 30 30 29 29 28 28 29 30 31 32 32 31 30 29 29 30 30 30 30 30 28 28 29 29 29 30 29 28
50 50 50 50 49 49 49 48 48 47 43 43 43 43 41 39 39 39 39 39 37 37 37 37 37 36 36 37 36 35 35 35 35 35 35 34 34 32 32 32 31 30 30 29 29 29 29 29 29 28 30 30 31 31 31 30 30 29 30 29 27 27 28 29 30 31 31 31 29 30 30 31 31 31 31 30 29 29 29 29 29 30 29 29 28
49 50 50 50 49 49 48 48 47 41 43 45 44 41 39 39 39 39 38 39 39 38 38 37 37 37 35 34 40 37 36 35 35 34 34 34 32 33 34 30 31 29 31 29 29 29 29 29 30 29 29 31 32 32 31 30 29 28 29 29 28 28 31 31 32 31 31 30 30 31 31 30 31 30 30 30 30 30 30 29 29 28 28 28 27
49 45 43 43 45 48 48 46 45 46 45 44 43 40 38 39 40 42 42 38 37 37 35 36 36 35 35 36 36 37 35 36 35 33 33 33 34 32 31 30 29 28 28 29 29 29 29 28 29 29 29 30 30 30 31 30 29 29 29 30 30 31 31 30 31 30 30 30 30 31 31 31 30 30 30 31 30 30 29 29 28 27 24 24 24
47 47 44 41 47 46 45 44 46 46 44 44 44 42 40 40 41 41 40 38 38 36 36 36 35 35 35 35 35 36 35 35 35 34 33 32 32 32 30 29 28 28 27 28 28 28 28 27 28 28 28 28 28 28 30 29 29 29 30 30 30 30 30 30 30 30 31 31 31 31 31 31 31 31 30 31 30 30 29 28 27 26 24 23 23
47 46 43 44 44 45 45 44 45 45 44 43 43 41 41 41 41 39 40 38 37 35 35 35 36 35 35 34 34 34 34 34 35 34 32 31 31 30 30 29 28 28 29 32 29 28 28 27 27 27 27 26 26 28 29 30 30 30 30 31 31 30 31 31 31 31 31 31 31 31 31 31 31 30 29 29 32 30 28 27 25 24 24 23 22
47 47 48 46 44 46 45 44 43 41 42 42 43 44 42 41 42 42 39 38 36 36 36 36 36 34 34 34 34 34 33 33 33 32 32 31 30 29 29 29 29 28 28 28 28 28 28 27 27 27 26 26 26 29 31 31 31 31 31 31 31 30 31 31 31 31 31 31 31 31 31 31 31 30 29 30 28 27 25 24 23 23 22 21 21
47 47 48 46 47 45 43 42 42 43 43 44 44 41 42 43 43 42 40 40 39 37 36 36 36 34 33 33 33 33 33 32 31 31 30 30 29 29 28 29 29 29 29 29 29 30 30 30 29 29 28 27 28 29 31 31 31 31 31 31 31 31 31 31 31 31 31 31 31 31 31 31 30 28 28 27 26 25 23 23 22 22 20 19 19
46 46 46 47 46 45 43 43 43 43 44 42 42 41 42 43 43 42 41 40 39 37 37 37 36 34 33 32 32 32 32 32 31 30 30 30 29 29 28 28 29 29 30 30 31 32 33 33 32 32 33 33 32 32 31 31 31 31 31 31 31 31 31 31 31 31 31 30 30 30 30 29 28 27 27 26 24 23 22 22 22 20 19 18 18
48 47 47 47 46 45 44 42 42 42 40 39 41 42 40 42 41 41 40 40 38 38 38 37 37 35 33 32 31 31 31 31 31 30 29 29 29 28 28 28 29 29 28 28 29 32 33 32 33 33 34 34 34 33 32 32 32 31 31 31 31 31 31 31 31 31 31 30 30 29 28 27 26 25 25 24 23 23 22 20 20 23 19 19 18
47 47 46 46 45 44 43 43 41 41 40 41 40 40 40 40 40 40 39 39 39 39 39 37 37 36 34 33 32 31 31 31 30 29 29 29 29 29 29 28 28 29 28 29 30 34 33 35 34 33 33 33 33 32 32 32 32 32 33 32 32 32 31 31 31 31 31 30 29 28 27 26 25 26 26 23 23 22 21 19 18 19 18 19 19
47 47 46 45 45 43 43 42 40 40 39 39 39 39 38 38 38 38 37 37 37 37 38 38 37 36 35 34 33 32 31 31 30 29 29 29 28 28 28 29 29 29 29 30 34 34 34 34 34 34 32 31 30 29 28 28 28 28 28 28 29 29 29 30 30 30 30 30 29 27 26 25 26 26 26 24 23 22 21 19 19 18 18 19 18
47 46 45 44 44 44 42 41 39 36 38 37 37 36 36 36 37 38 38 36 35 35 36 36 35 35 34 34 34 33 32 31 30 29 29 28 28 28 29 29 29 29 31 33 34 34 34 35 34 33 31 30 29 27 25 24 24 24 23 23 24 25 26 26 27 28 29 29 28 27 26 25 24 24 23 22 21 21 20 19 20 19 18 19 19
46 46 45 45 45 44 42 42 39 39 39 37 35 35 35 37 38 38 39 36 34 33 34 34 33 33 33 34 34 34 33 32 30 29 29 28 29 29 29 30 30 32 33 33 33 34 35 34 33 31 30 29 26 24 23 23 21 21 21 22 24 25 26 26 27 27 27 28 27 26 26 25 24 24 23 22 22 21 21 20 19 18 18 18 17
45 45 45 44 44 44 44 43 42 42 41 41 39 37 37 38 37 38 37 35 34 32 32 32 32 31 31 32 32 33 32 31 30 28 27 28 29 29 30 33 33 33 33 33 33 33 32 31 30 29 28 26 24 23 22 21 20 20 21 23 24 25 25 25 26 26 26 26 26 25 25 24 23 22 22 22 21 21 20 18 18 19 17 14 15
44 44 44 45 45 44 43 42 42 42 43 42 40 38 37 38 38 38 36 35 33 32 31 31 30 30 30 31 31 31 30 30 29 27 27 30 32 32 33 33 33 33 32 31 30 30 29 29 28 27 27 25 24 22 21 22 22 22 23 23 23 24 24 25 25 25 25 25 26 25 23 22 20 20 20 21 20 19 19 19 18 16 15 14 15